Location: Marlborough
(51.4223°N, 1.7415°W)
Time: 08:16:50
(UTC+01:00)

Envisat - Pass Details

Date: 01 June 2024
Orbit: 762 x 764 km, 98.3° (Epoch: 13 June)

Event Time Altitude Azimuth Distance (km) Brightness Sun altitude
Rises 03:31:09 0° 23° (NNE) 3,240 8.2 -9.8°
Reaches altitude 10° 03:33:50 10° 36° (NE) 2,308 7.2 -9.5°
Maximum altitude 03:38:03 26° 92° (E) 1,482 4.9 -9.2°
Drops below altitude 10° 03:42:14 10° 148° (SSE) 2,294 5.3 -8.8°
Sets 03:44:54 0° 161° (SSE) 3,214 5.9 -8.5°
